sat.trackr.live / text

‹ back to catalog

AETHER-11

NORAD 67382 · 2026-004V

PAYLOAD ACTIVE UNKNOWN

§ Identity

Operator
Country
CA
Launch date
2026-01-11
Launch site
AFWTR
Launch vehicle
Mass (kg)
RCS (m²)

External: N2YO · Heavens-Above · Gunter

§ Orbital elements

Epoch: 2026-09-20T11:59:20.746752Z

Period
96.91 min
Inclination
97.8107°
Eccentricity
0.0000684
Mean motion
14.85909645 rev/d
Perigee alt
610.3 km
Apogee alt
611.2 km
Semi-major
6,988.9 km
B*
5.2390e-5
RAAN
260.4293°
Arg perigee
167.6344°
Mean anomaly
192.4888°
Rev number
3,744

§ Raw data

AETHER-111 67382U 26004V   26263.49954568  .00000404  00000+0  52390-4 0  99972 67382  97.8107 260.4293 0000684 167.6344 192.4888 14.85909645 37444

JSON: /api/v1/satellites/67382 · /tle

For live sub-satellite position, see the globe view (requires WebGL).

§ Visibility from observer

Set your observer location to see the next 7 days of passes ≥ 10°. The values pass through the URL so the page stays shareable.

No JS? Fill the form by hand. The geolocation button needs JavaScript.